CZ-6A DEB, 54982

Orbit data source: Space-Track

CZ-6A DEB, 54982 is space debris in SSO originally from a launch on Fri, 11 Nov 2022 UTC launched from the Taiyaun Space Center, China (TSC). Debris objects in space refer to the collection of defunct objects orbiting the Earth. Examples of debris include non-operational satellites, rocket bodies, and fragments generated from explosions, collisions, or faulty payload assembly.

Loading next visibility...
Identifier
54982, 2022-151TX
Orbit
SSO
Country
Flag of CNCN / PRC
Related business
Manufacturer
SAST
Mission
Spacecraft
Bus & Motor
Unknown
Mass
Unknown
Launch date (UTC)
2022-11-11 (3 years ago)
Launch vehicle
Unknown
Launch site
Taiyaun Space Center, China (TSC)
Object type
Payload
Rocket body
Debris
Shape & HBR
Unknown shape, 0.1 m
Radar Cross Section
Small (<0.1 m²)

Expand to show TLE details & history
Last TLE update: 3 days ago

TLE from 3 days ago
0 CZ-6A DEB
1 54982U 22151TX  26128.33408218  .00005962  00000-0  14342-2 0  9995
2 54982  98.5810 156.8025 0057186 134.2752 226.3156 14.52698276182285
Epoch: 2026-05-08T08:01Z
TLE epoch observation values (Epoch: 2026-05-08T08:01:04.700Z)
Latitude
0.00002°
Longitude
170.36555°
Altitude
747.963 km
Speed
7.466 km/s
True Right ascension
10h 27m 12s
True Declination
0° 00' 00"
Sunlit
Object was in daylight at epoch
Visualization orbit readout
Latitude
Unknown
Longitude
Unknown
Altitude
Unknown
Speed
Unknown
Apparent Right ascension
Unknown
Apparent Declination
Unknown
Sunlit
N/A
Visualization observer readout
Local Sidereal Time
05:28:43
Azimuth
Unknown
Elevation
Unknown
Doppler factor
Unknown
Orbital elements
Apogee altitude
754.515 km
Perigee altitude
673.401 km
Semi-major axis
7,092.095 km
Eccentricity
0.00572
Inclination
98.581°
RAAN
156.8025°
Arg. of periapsis
134.2752°
True anomaly
225.84405°
Mean anomaly
226.3156°
Eccentric anomaly
226.07959°
Mean motion
3.63397 °/min
Orbital period
99.07 mins
BSTAR
0.0014342
Loading maneuver chart data...
Computing Atmospheric mass density...
Loading historical data...
Loading historical data...
Loading historical data...
Loading historical data...
Loading historical data...
Loading historical data...
Loading historical data...

Documentation

Showing up to 5 results
|